This is the latest recevied weather packets stored in our database for station/object EA7JCM-13. If no packets are shown the sender has not sent any weather packets the latest 10 day(s).
| Time | Temp. | Humidity | Pressure | Rain* | Wind** | Luminosity | Snow |
|---|---|---|---|---|---|---|---|
| 1777634704 | 22.22° C | 57% | 1015.5 hPa | 0 mm | - | - | - |
| 1777634403 | 21.67° C | 58% | 1015.3 hPa | 0 mm | - | - | - |
| 1777634104 | 22.22° C | 58% | 1015.6 hPa | 0 mm | - | - | - |
| 1777633803 | 22.22° C | 58% | 1015.4 hPa | 0 mm | - | - | - |
| 1777633503 | 21.67° C | 59% | 1015.3 hPa | 0 mm | - | - | - |
| 1777633204 | 21.11° C | 60% | 1015.5 hPa | 0 mm | - | - | - |
| 1777632904 | 21.11° C | 59% | 1015.5 hPa | 0 mm | - | - | - |
| 1777632603 | 21.67° C | 59% | 1015.4 hPa | 0 mm | - | - | - |
| 1777632303 | 21.67° C | 60% | 1015.7 hPa | 0 mm | - | - | - |
| 1777632004 | 21.67° C | 60% | 1015.6 hPa | 0 mm | - | - | - |
| 1777631703 | 21.67° C | 60% | 1015.7 hPa | 0 mm | - | - | - |
| 1777631403 | 21.11° C | 59% | 1016 hPa | 0 mm | - | - | - |
| 1777631104 | 21.11° C | 60% | 1015.8 hPa | 0 mm | - | - | - |
| 1777630803 | 21.11° C | 60% | 1015.8 hPa | 0 mm | - | - | - |
| 1777630504 | 21.11° C | 59% | 1015.8 hPa | 0 mm | - | - | - |
| 1777630203 | 20.56° C | 61% | 1016 hPa | 0 mm | - | - | - |
| 1777629903 | 20.56° C | 60% | 1015.9 hPa | 0 mm | - | - | - |
| 1777629604 | 21.11° C | 60% | 1015.9 hPa | 0 mm | - | - | - |
| 1777629303 | 20.56° C | 61% | 1015.7 hPa | 0 mm | - | - | - |
| 1777629003 | 20.56° C | 61% | 1016.1 hPa | 0 mm | - | - | - |
| 1777628703 | 20° C | 61% | 1016 hPa | 0 mm | - | - | - |
| 1777628403 | 20.56° C | 60% | 1016.2 hPa | 0 mm | - | - | - |
| 1777628104 | 20° C | 60% | 1015.8 hPa | 0 mm | - | - | - |
| 1777627803 | 19.44° C | 60% | 1015.7 hPa | 0 mm | - | - | - |
| 1777627503 | 19.44° C | 62% | 1015.8 hPa | 0 mm | - | - | - |
* Rain latest hour (hover to see other rain measurements)
** Current wind speed in m/s (hover to see current wind gust speed)